Weather Roundup
Issued by NWS Chicago, IL

Home | Current Version | Previous Version | Text Only | Print | Product List | Glossary Off
Versions: 1 2 3 4 5 6 7 8 9 10 11 12 13 14 15 16 17 18 19 20 21 22 23 24 25 26 27 28 29 30 31 32 33 34 35 36 37 38 39 40 41 42 43 44 45 46 47 48 49 50

000
NZUS59 KLOT 221609
HRRLOT

CHICAGO AREA WEATHER ROUNDUP
NATIONAL WEATHER SERVICE CHICAGO/ROMEOVILLE IL
1000 AM CST WED NOV 22 2017

NOTE: "FAIR" INDICATES FEW OR NO CLOUDS BELOW 12,000 FEET WITH NO
SIGNIFICANT WEATHER AND/OR OBSTRUCTIONS TO VISIBILITY.

* THESE STATIONS ARE NOT UNDER NWS QUALITY CONTROL. THEY ALSO MAY NOT
  REPORT WEATHER SUCH AS PRECIPITATION OR FOG.

ILZ005-006-012>014-019>023-221700-
NORTHEAST ILLINOIS

CITY           SKY/WX    TMP DP  RH WIND       PRES   REMARKS
OHARE          MOSUNNY   29  13  51 N3        30.37R
MIDWAY         MOSUNNY   29  14  53 NW6       30.37S WCI  23
AURORA         SUNNY     27  16  63 CALM      30.38S
LANSING*       SUNNY     30  19  64 W7        30.37S WCI  23
JOLIET*        SUNNY     29  18  61 N5        30.39R WCI  24
WAUKEGAN       SUNNY     29  16  58 W3        30.35R
DUPAGE AIRPORT SUNNY     27  14  58 MISG      30.37R
WHEELING       SUNNY     29  15  56 VRB3      30.38R
KANKAKEE*      SUNNY     29  16  56 NW3       30.38F
MORRIS*        SUNNY     29  17  61 N3        30.38R
LEWIS AIRPORT* SUNNY     28  17  64 NW3       30.38R
NORTHERLY ISL    N/A     29  16  58 W8          N/A  WCI  21
$$

WIZ051-052-058>065-066-070>072-221700-
SOUTHEAST WISCONSIN

CITY           SKY/WX    TMP DP  RH WIND       PRES   REMARKS
MILWAUKEE      MOSUNNY   29  13  51 CALM      30.34S
KENOSHA*       SUNNY     27  14  58 NW5       30.35R WCI  22
RACINE*        SUNNY     27  17  66 VRB5      30.36S WCI  22
BURLINGTON     SUNNY     30  21  70 SW5       30.35S WCI  25
WAUKESHA       SUNNY     25  14  63 W5        30.34S WCI  19
WEST BEND      SUNNY     27  12  54 CALM      30.32S
$$

INZ001>003-010>013-019-020-221700-
NORTHWEST INDIANA

CITY           SKY/WX    TMP DP  RH WIND       PRES   REMARKS
GARY*          MOSUNNY   32  16  51 W12       30.37S WCI  23
MICHIGAN CITY* NOT AVBL
RENSSELAER*    NOT AVBL
VALPARAISO     CLOUDY    34  22  61 W13       30.34R WCI  25
$$

LMZ740>746-221700-
SOUTHERN LAKE MICHIGAN

STATION/POSITION TIME  SKY/WX   TEMP WIND        PRES    VSBY
                                AIR  DIR/SP/G
                 (UTC)          (F)  (DEG/KT/KT) (MB)    (MI)
HARRISON CRIB    1540            28  280/ 11/ 13   N/A
BURNHAM HARBOR   1600            29  260/  6/ 11   N/A
CALUMET HARBOR   1548            29  250/  5/ 10 1027.5R
BURNS HARBOR     1540            31  270/ 14/ 18 1027.8R
MICHIGAN CITY    1540            33  290/ 10/ 11   N/A
$$

ABBREVIATIONS USED IN REMARKS
   TC - TEMPERATURE IN CELSIUS
  WCI - WIND CHILL INDEX
   HX - HEAT INDEX
  VSB - VISIBILITY
$$



USA.gov is the U.S. government's official web portal to all federal, state and local government web resources and services.